Location: Unspecified
(34.4950°S, 58.5160°W)
Time: 00:02:13
(UTC+00:00)

SL-16 R/B - Pass Details

Date: 19 April 2026
Orbit: 841 x 845 km, 71.0° (Epoch: 16 May)

Event Time Altitude Azimuth Distance (km) Brightness Sun altitude
Exits shadow 07:30:06 - 20° (NNE) 3,162 5.3 -35.7°
Reaches altitude 10° 07:32:25 10° 33° (NNE) 2,463 4.8 -35.2°
Maximum altitude 07:36:29 21° 80° (E) 1,836 4.5 -34.4°
Drops below altitude 10° 07:40:35 10° 126° (SE) 2,483 5.3 -33.5°
Sets 07:43:37 0° 141° (SE) 3,426 6.0 -32.9°
